Location: Newark
(39.3539°N, 74.7750°W)
Time: 07:12:44
(UTC+00:00)

N. Korean satellite - Visible Passes

Search period start: 18 September 2020 00:00
Search period end: 28 September 2020 00:00
Orbit: 455 x 503 km, 97.2° (Epoch: 17 September)

Date Brightness Start Highest point End Pass type
(mag) Time Alt. Az. Time Alt. Az. Time Alt. Az.
18 Sep 8.8 10:00:49 10° NNE 10:04:06 31° E 10:07:21 10° SSE visible
19 Sep 9.9 09:35:50 10° ENE 09:37:57 15° E 09:40:04 10° SE visible
21 Sep 7.7 10:15:55 10° NNE 10:19:29 49° E 10:22:59 10° S visible
22 Sep 9.4 09:50:27 10° NE 09:53:23 23° E 09:56:16 10° SSE visible
23 Sep 10.3 09:26:18 10° ENE 09:27:11 11° E 09:28:02 10° ESE visible
25 Sep 8.5 10:05:23 10° NNE 10:08:45 35° E 10:12:03 10° SSE visible
26 Sep 9.8 09:40:12 10° NE 09:42:36 17° E 09:44:56 10° SE visible
